星链-31327 (STARLINK-31327 )

导读 | 星芒AI

STARLINK-31327 是 SpaceX 星链计划中的一颗低轨通信卫星,属于第 11 批星链卫星(Batch 11)。它于 2023 年 9 月 29 日由猎鹰 9 号火箭从佛罗里达州肯尼迪航天中心发射升空,作为星链星座的一部分,旨在为全球提供高速互联网服务。该卫星运行在约 550 公里的轨道高度,设计寿命约为 5 至 7 年,具备自动避撞和推进能力,有助于降低太空碎片风险。

基本信息
目录编号:
59160
目录名称:
STARLINK-31327
国际标识:
2024-044J
轨道中心:
EARTH
卫星名称:
星链-31327
卫星全名:
星链-31327 (STARLINK-31327 )
卫星状态:
在轨 (已飞行655 天)
发射日期:
2024-03-04 UTC
国别 :
美国 (US)
星等 :
--
轨道信息
数据来源 国际轨道数据 AOE轨道数据
星历时间 2025-12-19T08:04:18+0800
22小时前
查看轨道信息
2025-12-17T15:00:00+0800
2天前
查看轨道信息
半长轴 6861.2km 6861.172km
偏心率 0.0001139 0.0001382
轨道倾角 43.000° 42.994°
近地点辐角 269.158° 271.885°
升交点赤经 202.868° 212.529°
平近点角 90.914° 26.116°
近地点 482.281km 482.088km
远地点 483.845km 483.986km
周期 94.267分钟 94.266分钟
每日圈数 15.275754 15.27585
详细信息
固有亮度:
5
最大亮度:
0.3
卫星平台:
Starlink v2.0 mini
覆盖范围:
全球
运营商:
太空探索技术公司
运营商所在国:
美国
制造商(研发单位):
太空探索技术公司
制造商所在国:
美国
使用方式:
暂无
卫星简介
星链(Starlink)计划是由太空探索技术公司(SpaceX)提出的一个巨型低轨卫星互联网星座项目,计划在2019年至2024年间在太空搭建由约1.2万颗卫星组成的“星链”网络,其中1584颗将部署在地球上空550千米处的近地轨道,并从2020年开始工作。该卫星仍在工作。
2D轨道图
3D轨道图
轨道高度分析图
轨道倾角分析图
轨道综合分析图
查看轨道综合分析图